This is the latest recevied weather packets stored in our database for station/object KR4BRU. If no packets are shown the sender has not sent any weather packets the latest 10 day(s).
| Time | Temp. | Humidity | Pressure | Rain* | Wind** | Luminosity | Snow |
|---|---|---|---|---|---|---|---|
| 1777694308 | 16.67° C | 42% | 1011.5 hPa | 0 mm | - | 0 W/m² | - |
| 1777693708 | 16.67° C | 42% | 1011.3 hPa | 0 mm | - | 0 W/m² | - |
| 1777693104 | 16.67° C | 41% | 1011.3 hPa | 0 mm | - | 0 W/m² | - |
| 1777692504 | 16.67° C | 43% | 1011.5 hPa | 0 mm | - | 0 W/m² | - |
| 1777691904 | 16.67° C | 45% | 1011.4 hPa | 0 mm | - | 0 W/m² | - |
| 1777691300 | 17.22° C | 46% | 1011.3 hPa | 0 mm | - | 0 W/m² | - |
| 1777690701 | 17.22° C | 48% | 1011.5 hPa | 0 mm | - | 0 W/m² | - |
| 1777690096 | 17.22° C | 48% | 1010.9 hPa | 0 mm | - | 0 W/m² | - |
| 1777689491 | 17.22° C | 49% | 1011.2 hPa | 0 mm | - | 0 W/m² | - |
| 1777688886 | 17.22° C | 50% | 1011.1 hPa | 0 mm | - | 0 W/m² | - |
| 1777688285 | 17.78° C | 49% | 1011 hPa | 0 mm | - | 0 W/m² | - |
| 1777687685 | 17.78° C | 49% | 1010.7 hPa | 0 mm | - | 0 W/m² | - |
| 1777687086 | 17.78° C | 51% | 1011 hPa | 0 mm | - | 0 W/m² | - |
| 1777686486 | 17.78° C | 50% | 1010.8 hPa | 0 mm | - | 0 W/m² | - |
| 1777685885 | 17.78° C | 53% | 1010.8 hPa | 0 mm | - | 0 W/m² | - |
| 1777685283 | 17.22° C | 57% | 1010.7 hPa | 0 mm | - | 0 W/m² | - |
| 1777684678 | 16.67° C | 56% | 1010.4 hPa | 0 mm | - | 0 W/m² | - |
| 1777684077 | 16.67° C | 57% | 1010 hPa | 0 mm | - | 0 W/m² | - |
| 1777683477 | 16.67° C | 57% | 1009.5 hPa | 0 mm | - | 0 W/m² | - |
| 1777682877 | 16.67° C | 57% | 1009.5 hPa | 0 mm | - | 0 W/m² | - |
| 1777682271 | 17.22° C | 56% | 1009.3 hPa | 0 mm | - | 0 W/m² | - |
| 1777681669 | 17.22° C | 56% | 1009.5 hPa | 0 mm | - | 1 W/m² | - |
| 1777681070 | 17.78° C | 55% | 1009.2 hPa | 0 mm | - | 2 W/m² | - |
| 1777680465 | 18.33° C | 52% | 1009 hPa | 0 mm | - | 5 W/m² | - |
| 1777679864 | 18.89° C | 51% | 1009.3 hPa | 0 mm | - | 11 W/m² | - |
* Rain latest hour (hover to see other rain measurements)
** Current wind speed in m/s (hover to see current wind gust speed)